TimeMST,TemperatureF,Dew PointF,Humidity,Sea Level PressureIn,VisibilityMPH,Wind Direction,Wind SpeedMPH,Gust SpeedMPH,PrecipitationIn,Events,Conditions,WindDirDegrees,DateUTC
12:53 AM,41.0,17.1,38,29.73,10.0,SSW,23.0,31.1,N/A,,Clear,210,2013-03-07 07:53:00
1:53 AM,41.0,17.1,38,29.75,10.0,SW,17.3,25.3,N/A,,Clear,220,2013-03-07 08:53:00
2:53 AM,36.0,19.9,52,29.79,10.0,WSW,18.4,-,N/A,,Clear,250,2013-03-07 09:53:00
3:53 AM,34.0,19.9,56,29.82,10.0,WSW,11.5,-,N/A,,Clear,240,2013-03-07 10:53:00
4:53 AM,33.1,25.0,72,29.86,10.0,West,10.4,-,N/A,,Clear,270,2013-03-07 11:53:00
5:53 AM,30.0,23.0,75,29.94,10.0,WSW,15.0,-,N/A,,Scattered Clouds,250,2013-03-07 12:53:00
6:53 AM,28.9,23.0,78,29.96,10.0,WSW,8.1,-,N/A,,Clear,250,2013-03-07 13:53:00
7:53 AM,32.0,24.1,73,29.97,10.0,Variable,3.5,-,N/A,,Clear,0,2013-03-07 14:53:00
8:53 AM,34.0,21.9,61,29.98,10.0,WSW,5.8,-,N/A,,Clear,250,2013-03-07 15:53:00
9:53 AM,37.0,19.9,50,29.96,10.0,WNW,4.6,-,N/A,,Clear,300,2013-03-07 16:53:00
10:53 AM,39.0,21.0,49,29.93,10.0,West,9.2,-,N/A,,Clear,270,2013-03-07 17:53:00
11:53 AM,43.0,21.9,43,29.91,10.0,WSW,10.4,-,N/A,,Clear,240,2013-03-07 18:53:00
12:53 PM,46.9,19.9,34,29.86,10.0,SW,15.0,20.7,N/A,,Clear,230,2013-03-07 19:53:00
1:53 PM,48.9,19.0,31,29.84,10.0,SW,12.7,24.2,N/A,,Clear,230,2013-03-07 20:53:00
2:53 PM,48.0,15.1,27,29.86,10.0,WSW,20.7,26.5,N/A,,Clear,250,2013-03-07 21:53:00
3:53 PM,46.9,17.1,30,29.87,10.0,SW,10.4,-,N/A,,Clear,230,2013-03-07 22:53:00
4:53 PM,46.9,18.0,32,29.88,10.0,SW,10.4,-,N/A,,Clear,220,2013-03-07 23:53:00
5:53 PM,41.0,19.0,41,29.93,10.0,West,4.6,-,N/A,,Clear,260,2013-03-08 00:53:00
6:53 PM,37.9,21.0,51,29.96,10.0,Calm,Calm,-,N/A,,Overcast,0,2013-03-08 01:53:00
7:53 PM,37.0,21.9,54,29.95,10.0,Calm,Calm,-,N/A,,Overcast,0,2013-03-08 02:53:00
8:53 PM,37.0,21.0,52,29.94,10.0,East,5.8,-,N/A,,Scattered Clouds,90,2013-03-08 03:53:00
9:53 PM,35.1,21.9,59,29.94,10.0,Calm,Calm,-,N/A,,Scattered Clouds,0,2013-03-08 04:53:00
10:53 PM,32.0,21.9,66,29.93,10.0,Calm,Calm,-,N/A,,Mostly Cloudy,0,2013-03-08 05:53:00
11:53 PM,34.0,21.9,61,29.88,10.0,NE,8.1,-,N/A,,Mostly Cloudy,40,2013-03-08 06:53:00